| time (UTC) | temp F | wind direction | speed knots | gust knots | rain 1hr in | rain 24hr in | rain mn in | humidity % | barometer mb |
| 20260507104004 | 52 | 205 | 0.9 | 3.5 | 0.00 | 0.00 | 0.00 | 80 | 1016.1 |
| 20260507103503 | 52 | 218 | 1.7 | 2.6 | 0.00 | 0.00 | 0.00 | 80 | 1016.2 |
| 20260507103003 | 52 | 231 | 1.7 | 3.5 | 0.00 | 0.00 | 0.00 | 79 | 1016.2 |
| 20260507102503 | 52 | 229 | 1.7 | 3.5 | 0.00 | 0.00 | 0.00 | 80 | 1016.2 |
| 20260507102003 | 52 | 212 | 0.9 | 2.6 | 0.00 | 0.00 | 0.00 | 79 | 1016.1 |
| 20260507101503 | 52 | 196 | 0.0 | 1.7 | 0.00 | 0.00 | 0.00 | 80 | 1016.1 |
| 20260507101003 | 52 | 231 | 0.9 | 3.5 | 0.00 | 0.00 | 0.00 | 80 | 1016.1 |
| 20260507100503 | 52 | 229 | 1.7 | 4.3 | 0.00 | 0.00 | 0.00 | 80 | 1016.1 |
| 20260507100003 | 52 | 253 | 1.7 | 4.3 | 0.00 | 0.00 | 0.00 | 79 | 1016.0 |
| 20260507095504 | 52 | 330 | 0.9 | 3.5 | 0.00 | 0.00 | 0.00 | 80 | 1016.0 |
| 20260507094504 | 52 | 321 | 0.9 | 2.6 | 0.00 | 0.00 | 0.00 | 79 | 1016.0 |
| 20260507094003 | 52 | 125 | 0.9 | 2.6 | 0.00 | 0.00 | 0.00 | 80 | 1016.0 |
| 20260507093503 | 51 | 49 | 0.9 | 2.6 | 0.00 | 0.00 | 0.00 | 80 | 1016.0 |
| 20260507092503 | 51 | 27 | 1.7 | 3.5 | 0.00 | 0.00 | 0.00 | 81 | 1016.1 |
| 20260507092003 | 51 | 328 | 1.7 | 4.3 | 0.00 | 0.00 | 0.00 | 80 | 1015.9 |
| 20260507091503 | 51 | 345 | 2.6 | 7.0 | 0.00 | 0.00 | 0.00 | 79 | 1015.9 |
| 20260507091004 | 51 | 334 | 2.6 | 7.0 | 0.00 | 0.00 | 0.00 | 81 | 1015.9 |
| 20260507090504 | 51 | 335 | 2.6 | 5.2 | 0.00 | 0.00 | 0.00 | 81 | 1015.8 |
| 20260507090003 | 51 | 344 | 1.7 | 5.2 | 0.00 | 0.00 | 0.00 | 80 | 1015.7 |
| 20260507085503 | 51 | 351 | 1.7 | 3.5 | 0.00 | 0.00 | 0.00 | 79 | 1015.7 |
| 20260507085003 | 51 | 339 | 1.7 | 4.3 | 0.00 | 0.00 | 0.00 | 80 | 1015.6 |
| 20260507084503 | 51 | 340 | 1.7 | 6.1 | 0.00 | 0.00 | 0.00 | 82 | 1015.6 |
| 20260507084003 | 51 | 349 | 2.6 | 6.1 | 0.00 | 0.00 | 0.00 | 80 | 1015.6 |
| 20260507083503 | 51 | 350 | 2.6 | 7.0 | 0.00 | 0.00 | 0.00 | 81 | 1015.5 |
| 20260507083004 | 51 | 332 | 2.6 | 7.0 | 0.00 | 0.00 | 0.00 | 81 | 1015.6 |
| 20260507082503 | 50 | 324 | 2.6 | 5.2 | 0.00 | 0.00 | 0.00 | 81 | 1015.6 |
| 20260507081003 | 49 | 343 | 1.7 | 5.2 | 0.00 | 0.00 | 0.00 | 84 | 1015.4 |
| 20260507080504 | 49 | 349 | 1.7 | 5.2 | 0.00 | 0.00 | 0.00 | 83 | 1015.4 |
| 20260507080004 | 49 | 344 | 1.7 | 7.0 | 0.00 | 0.00 | 0.00 | 84 | 1015.4 |
| 20260507075503 | 48 | 340 | 1.7 | 7.0 | 0.00 | 0.00 | 0.00 | 85 | 1015.6 |
| 20260507075003 | 48 | 351 | 1.7 | 7.0 | 0.00 | 0.00 | 0.00 | 85 | 1015.5 |
| 20260507074503 | 48 | 350 | 1.7 | 7.0 | 0.00 | 0.00 | 0.00 | 86 | 1015.4 |
| 20260507074003 | 47 | 352 | 1.7 | 5.2 | 0.00 | 0.00 | 0.00 | 86 | 1015.3 |
| 20260507073504 | 47 | 354 | 2.6 | 5.2 | 0.00 | 0.00 | 0.00 | 86 | 1015.3 |
| 20260507073004 | 47 | 349 | 2.6 | 5.2 | 0.00 | 0.00 | 0.00 | 86 | 1015.3 |
| 20260507072503 | 47 | 349 | 1.7 | 4.3 | 0.00 | 0.00 | 0.00 | 86 | 1015.2 |
| 20260507072004 | 47 | 352 | 1.7 | 3.5 | 0.00 | 0.00 | 0.00 | 87 | 1015.2 |
| 20260507071503 | 47 | 353 | 0.9 | 3.5 | 0.00 | 0.00 | 0.00 | 87 | 1015.2 |
| 20260507071003 | 47 | 351 | 1.7 | 4.3 | 0.00 | 0.00 | 0.00 | 87 | 1015.2 |
| 20260506234003 | 45 | 0 | 0.0 | 0.0 | 0.00 | 0.04 | 0.00 | 90 | 1012.2 |
| 20260506233503 | 45 | 0 | 0.0 | 0.0 | 0.00 | 0.04 | 0.00 | 90 | 1012.2 |
| 20260506233004 | 45 | 0 | 0.0 | 0.0 | 0.00 | 0.04 | 0.00 | 89 | 1012.2 |
| 20260506232504 | 45 | 0 | 0.0 | 0.0 | 0.00 | 0.04 | 0.00 | 89 | 1012.2 |
| 20260506232003 | 45 | 0 | 0.0 | 0.0 | 0.00 | 0.04 | 0.00 | 89 | 1012.2 |
| 20260506231003 | 45 | 311 | 0.0 | 1.7 | 0.00 | 0.05 | 0.00 | 89 | 1012.1 |
| 20260506230503 | 45 | 294 | 0.9 | 3.5 | 0.00 | 0.05 | 0.00 | 89 | 1012.2 |
| 20260506225504 | 46 | 313 | 0.9 | 2.6 | 0.00 | 0.06 | 0.00 | 89 | 1012.1 |
| 20260506225004 | 46 | 348 | 0.9 | 3.5 | 0.00 | 0.06 | 0.00 | 89 | 1012.1 |
| 20260506224503 | 46 | 346 | 0.9 | 3.5 | 0.00 | 0.06 | 0.00 | 89 | 1011.9 |
| 20260506224004 | 46 | 335 | 0.9 | 2.6 | 0.00 | 0.06 | 0.00 | 89 | 1011.9 |
| 20260506223504 | 46 | 341 | 0.9 | 3.5 | 0.00 | 0.06 | 0.00 | 89 | 1011.9 |
| 20260506222003 | 46 | 347 | 0.0 | 2.6 | 0.00 | 0.06 | 0.00 | 90 | 1011.6 |
| 20260506220504 | 46 | 0 | 0.0 | 0.0 | 0.00 | 0.06 | 0.00 | 90 | 1011.5 |
| 20260506220006 | 47 | 0 | 0.0 | 0.0 | 0.00 | 0.06 | 0.00 | 90 | 1011.6 |
| 20260506215503 | 47 | 302 | 0.0 | 0.9 | 0.00 | 0.06 | 0.06 | 90 | 1011.6 |
| 20260506215004 | 47 | 302 | 0.0 | 0.9 | 0.00 | 0.06 | 0.06 | 90 | 1011.6 |
| 20260506214504 | 47 | 0 | 0.0 | 0.0 | 0.00 | 0.06 | 0.06 | 90 | 1011.6 |
| 20260506213504 | 47 | 0 | 0.0 | 0.0 | 0.00 | 0.06 | 0.06 | 90 | 1011.5 |
| 20260506213004 | 47 | 0 | 0.0 | 0.0 | 0.00 | 0.06 | 0.06 | 89 | 1011.5 |
| 20260506212503 | 47 | 292 | 0.0 | 1.7 | 0.00 | 0.06 | 0.06 | 89 | 1011.4 |
| 20260506212004 | 47 | 299 | 0.0 | 1.7 | 0.00 | 0.06 | 0.06 | 90 | 1011.4 |
| 20260506211503 | 47 | 305 | 0.0 | 2.6 | 0.00 | 0.06 | 0.06 | 89 | 1011.4 |
| 20260506211004 | 47 | 300 | 0.0 | 3.5 | 0.00 | 0.06 | 0.06 | 89 | 1011.3 |
| 20260506210504 | 48 | 296 | 0.0 | 3.5 | 0.00 | 0.06 | 0.06 | 89 | 1011.3 |
| 20260506210004 | 48 | 293 | 0.0 | 1.7 | 0.00 | 0.06 | 0.06 | 89 | 1011.3 |
| 20260506205004 | 48 | 297 | 0.0 | 0.9 | 0.00 | 0.06 | 0.06 | 89 | 1011.1 |
| 20260506204504 | 48 | 297 | 0.0 | 0.9 | 0.00 | 0.06 | 0.06 | 88 | 1011.2 |
| 20260506204004 | 48 | 296 | 0.0 | 1.7 | 0.00 | 0.06 | 0.06 | 88 | 1011.2 |
| 20260506203504 | 48 | 296 | 0.0 | 1.7 | 0.00 | 0.06 | 0.06 | 88 | 1011.1 |
| 20260506203004 | 48 | 0 | 0.0 | 0.0 | 0.00 | 0.06 | 0.06 | 88 | 1011.1 |
| 20260506202004 | 48 | 0 | 0.0 | 0.0 | 0.00 | 0.08 | 0.06 | 87 | 1011.0 |
| 20260506201503 | 48 | 0 | 0.0 | 0.0 | 0.00 | 0.08 | 0.06 | 87 | 1011.0 |
| 20260506200503 | 48 | 0 | 0.0 | 0.0 | 0.00 | 0.09 | 0.06 | 87 | 1010.8 |
| 20260506200004 | 48 | 0 | 0.0 | 0.0 | 0.00 | 0.09 | 0.06 | 87 | 1010.8 |
| 20260506195504 | 48 | 0 | 0.0 | 0.0 | 0.00 | 0.09 | 0.06 | 87 | 1010.7 |
| 20260506195004 | 48 | 329 | 0.0 | 0.9 | 0.00 | 0.10 | 0.06 | 87 | 1010.7 |
| 20260506194004 | 48 | 338 | 0.9 | 1.7 | 0.00 | 0.11 | 0.06 | 86 | 1010.5 |
| 20260506193504 | 48 | 348 | 0.9 | 3.5 | 0.00 | 0.12 | 0.06 | 86 | 1010.4 |
| 20260506193005 | 48 | 343 | 0.9 | 3.5 | 0.00 | 0.12 | 0.06 | 86 | 1010.3 |
| 20260506192503 | 49 | 331 | 0.9 | 2.6 | 0.00 | 0.13 | 0.06 | 85 | 1010.2 |
| 20260506192004 | 49 | 335 | 0.9 | 3.5 | 0.00 | 0.13 | 0.06 | 85 | 1010.1 |
| 20260506191503 | 49 | 338 | 0.9 | 3.5 | 0.00 | 0.14 | 0.06 | 85 | 1010.2 |
| 20260506191004 | 49 | 342 | 0.0 | 3.5 | 0.00 | 0.14 | 0.06 | 85 | 1010.1 |
| 20260506190503 | 49 | 40 | 0.0 | 1.7 | 0.00 | 0.15 | 0.06 | 85 | 1010.1 |
| 20260506190004 | 49 | 314 | 0.9 | 2.6 | 0.00 | 0.16 | 0.06 | 85 | 1010.1 |
| 20260506185505 | 49 | 311 | 0.9 | 2.6 | 0.00 | 0.17 | 0.06 | 84 | 1010.0 |
| 20260506183005 | 49 | 347 | 1.7 | 4.3 | 0.00 | 0.23 | 0.06 | 84 | 1009.6 |
| 20260506182505 | 49 | 348 | 2.6 | 6.1 | 0.00 | 0.24 | 0.06 | 84 | 1009.6 |
| 20260506182004 | 49 | 340 | 1.7 | 6.1 | 0.00 | 0.24 | 0.06 | 84 | 1009.6 |
| 20260506181505 | 50 | 330 | 1.7 | 6.1 | 0.00 | 0.28 | 0.06 | 84 | 1009.5 |
| 20260506181004 | 50 | 338 | 1.7 | 4.3 | 0.00 | 0.31 | 0.06 | 84 | 1009.4 |
| 20260506180005 | 50 | 344 | 1.7 | 5.2 | 0.00 | 0.33 | 0.06 | 85 | 1009.3 |
| 20260506175504 | 50 | 336 | 1.7 | 4.3 | 0.00 | 0.33 | 0.06 | 85 | 1009.3 |
| 20260506174505 | 50 | 351 | 2.6 | 7.0 | 0.00 | 0.35 | 0.06 | 85 | 1009.3 |
| 20260506174005 | 50 | 348 | 2.6 | 7.0 | 0.00 | 0.35 | 0.06 | 85 | 1009.3 |
| 20260506173508 | 50 | 344 | 2.6 | 4.3 | 0.00 | 0.35 | 0.06 | 84 | 1009.4 |
| 20260506172504 | 50 | 342 | 2.6 | 7.0 | 0.00 | 0.35 | 0.06 | 84 | 1009.3 |
| 20260506172004 | 50 | 344 | 3.5 | 8.7 | 0.00 | 0.35 | 0.06 | 84 | 1009.3 |
| 20260506171004 | 51 | 343 | 1.7 | 5.2 | 0.00 | 0.35 | 0.06 | 84 | 1009.3 |
| 20260506170504 | 51 | 348 | 2.6 | 6.1 | 0.00 | 0.35 | 0.06 | 84 | 1009.2 |
| 20260506165504 | 51 | 348 | 2.6 | 7.8 | 0.00 | 0.35 | 0.06 | 83 | 1009.0 |
| 20260506165005 | 51 | 345 | 2.6 | 8.7 | 0.00 | 0.35 | 0.06 | 83 | 1009.1 |
| 20260506164004 | 51 | 356 | 2.6 | 7.0 | 0.00 | 0.35 | 0.06 | 83 | 1009.0 |
| 20260506163504 | 51 | 359 | 2.6 | 7.0 | 0.00 | 0.36 | 0.06 | 83 | 1008.9 |
| 20260506163004 | 51 | 2 | 1.7 | 5.2 | 0.00 | 0.36 | 0.06 | 84 | 1008.9 |
| 20260506162504 | 51 | 339 | 1.7 | 5.2 | 0.00 | 0.36 | 0.06 | 84 | 1008.9 |
| 20260506162004 | 51 | 346 | 2.6 | 7.0 | 0.00 | 0.36 | 0.06 | 84 | 1008.9 |
| 20260506161504 | 51 | 356 | 2.6 | 7.8 | 0.00 | 0.36 | 0.06 | 83 | 1008.9 |
| 20260506161004 | 52 | 355 | 2.6 | 7.8 | 0.00 | 0.36 | 0.06 | 83 | 1008.9 |
| 20260506160504 | 52 | 348 | 3.5 | 8.7 | 0.00 | 0.37 | 0.06 | 83 | 1008.8 |
| 20260506160004 | 52 | 347 | 2.6 | 8.7 | 0.00 | 0.37 | 0.06 | 82 | 1008.8 |
| 20260506155503 | 52 | 357 | 2.6 | 5.2 | 0.00 | 0.37 | 0.06 | 83 | 1008.8 |
| 20260506155004 | 52 | 352 | 3.5 | 7.0 | 0.00 | 0.38 | 0.06 | 83 | 1008.7 |
| 20260506154504 | 52 | 350 | 3.5 | 11.3 | 0.00 | 0.38 | 0.06 | 83 | 1008.7 |
| 20260506154004 | 52 | 353 | 2.6 | 11.3 | 0.00 | 0.38 | 0.06 | 83 | 1008.8 |
| 20260506153004 | 52 | 353 | 2.6 | 6.1 | 0.00 | 0.39 | 0.06 | 84 | 1008.6 |
| 20260506152004 | 51 | 345 | 2.6 | 7.8 | 0.00 | 0.39 | 0.06 | 84 | 1008.5 |
| 20260506151504 | 51 | 346 | 2.6 | 7.8 | 0.00 | 0.39 | 0.06 | 85 | 1008.5 |
| 20260506150004 | 51 | 346 | 3.5 | 7.8 | 0.00 | 0.39 | 0.06 | 85 | 1008.6 |
| 20260506145504 | 52 | 343 | 3.5 | 7.8 | 0.00 | 0.39 | 0.06 | 84 | 1008.5 |
| 20260506145004 | 52 | 347 | 2.6 | 7.8 | 0.00 | 0.40 | 0.06 | 84 | 1008.5 |
| 20260506144504 | 52 | 355 | 2.6 | 7.8 | 0.00 | 0.40 | 0.06 | 83 | 1008.4 |
| 20260506143504 | 52 | 347 | 2.6 | 8.7 | 0.00 | 0.40 | 0.06 | 84 | 1008.4 |
| 20260506143004 | 52 | 356 | 1.7 | 6.1 | 0.00 | 0.41 | 0.06 | 85 | 1008.5 |
| 20260506142004 | 52 | 340 | 1.7 | 5.2 | 0.00 | 0.41 | 0.06 | 85 | 1008.6 |
| 20260506141504 | 52 | 326 | 1.7 | 5.2 | 0.00 | 0.42 | 0.06 | 86 | 1008.6 |
| 20260506141003 | 52 | 334 | 1.7 | 5.2 | 0.00 | 0.42 | 0.06 | 86 | 1008.6 |
| 20260506140504 | 51 | 347 | 2.6 | 6.1 | 0.00 | 0.42 | 0.06 | 87 | 1008.6 |
| 20260506140004 | 51 | 347 | 2.6 | 6.1 | 0.00 | 0.42 | 0.06 | 87 | 1008.6 |
| 20260506135503 | 51 | 341 | 1.7 | 6.1 | 0.00 | 0.42 | 0.06 | 87 | 1008.6 |
| 20260506135004 | 51 | 333 | 1.7 | 4.3 | 0.00 | 0.43 | 0.06 | 86 | 1008.5 |
| 20260506134504 | 52 | 346 | 1.7 | 4.3 | 0.00 | 0.43 | 0.06 | 86 | 1008.6 |
| 20260506134003 | 52 | 349 | 2.6 | 5.2 | 0.00 | 0.43 | 0.06 | 85 | 1008.5 |
| 20260506132503 | 51 | 351 | 1.7 | 6.1 | 0.00 | 0.43 | 0.06 | 87 | 1008.5 |
| 20260506131510 | 51 | 345 | 2.6 | 5.2 | 0.00 | 0.43 | 0.06 | 87 | 1008.4 |
| 20260506131005 | 51 | 342 | 2.6 | 5.2 | 0.00 | 0.43 | 0.06 | 87 | 1008.5 |
| 20260506130511 | 51 | 345 | 1.7 | 4.3 | 0.00 | 0.44 | 0.06 | 87 | 1008.4 |
| 20260506125506 | 51 | 340 | 1.7 | 6.1 | 0.00 | 0.45 | 0.06 | 87 | 1008.3 |
| 20260506125004 | 51 | 347 | 2.6 | 7.0 | 0.00 | 0.46 | 0.06 | 86 | 1008.3 |
| 20260506124504 | 51 | 352 | 2.6 | 7.8 | 0.00 | 0.48 | 0.06 | 87 | 1008.2 |
| 20260506124004 | 51 | 352 | 2.6 | 7.8 | 0.00 | 0.50 | 0.06 | 87 | 1008.2 |
| 20260506123504 | 51 | 352 | 1.7 | 5.2 | 0.00 | 0.54 | 0.06 | 87 | 1008.2 |
| 20260506123004 | 51 | 357 | 1.7 | 8.7 | 0.00 | 0.59 | 0.06 | 87 | 1008.1 |
| 20260506122503 | 51 | 354 | 2.6 | 8.7 | 0.00 | 0.61 | 0.06 | 87 | 1007.9 |
| 20260506122004 | 51 | 341 | 2.6 | 7.0 | 0.00 | 0.62 | 0.06 | 87 | 1008.0 |
| 20260506121504 | 51 | 321 | 2.6 | 7.0 | 0.00 | 0.64 | 0.06 | 87 | 1007.9 |
| 20260506120503 | 51 | 336 | 2.6 | 7.8 | 0.00 | 0.67 | 0.06 | 87 | 1007.9 |
| 20260506120004 | 52 | 341 | 2.6 | 7.8 | 0.00 | 0.69 | 0.06 | 86 | 1007.9 |
| 20260506115004 | 52 | 348 | 2.6 | 5.2 | 0.00 | 0.71 | 0.06 | 87 | 1007.7 |
| 20260506114503 | 52 | 345 | 2.6 | 5.2 | 0.00 | 0.72 | 0.06 | 87 | 1007.7 |
| 20260506114003 | 51 | 345 | 2.6 | 5.2 | 0.00 | 0.72 | 0.06 | 87 | 1007.6 |
| 20260506113504 | 52 | 346 | 1.7 | 3.5 | 0.00 | 0.72 | 0.06 | 87 | 1007.7 |
| 20260506112503 | 51 | 354 | 2.6 | 5.2 | 0.00 | 0.72 | 0.06 | 88 | 1007.6 |
| 20260506111504 | 51 | 348 | 1.7 | 7.0 | 0.00 | 0.72 | 0.06 | 88 | 1007.6 |
| 20260506111004 | 51 | 337 | 1.7 | 3.5 | 0.00 | 0.72 | 0.06 | 89 | 1007.5 |
| 20260506110004 | 51 | 333 | 1.7 | 3.5 | 0.00 | 0.72 | 0.06 | 89 | 1007.4 |
| 20260506105503 | 51 | 339 | 1.7 | 3.5 | 0.00 | 0.72 | 0.06 | 89 | 1007.4 |